{"data":{"norad_id":62732,"epoch":"2026-05-25T04:13:23.335392Z","epoch_age_seconds":70512,"freshness":"FRESH","line1":"1 62732U 25013D   26145.17596453  .00002907  00000+0  17705-3 0  9999","line2":"2 62732  97.6536 314.5715 0010107 107.1732 253.0605 15.11160685 73807","mean_motion":15.11160685,"eccentricity":0.0010107,"inclination_deg":97.6536,"raan_deg":314.5715,"arg_perigee_deg":107.1732,"mean_anomaly_deg":253.0605,"bstar":0.00017705,"rev_number":7380,"period_min":95.290991506969,"perigee_km":525.67432106102,"apogee_km":539.64380422204,"semimajor_km":6910.7960626415,"source":"CELESTRAK","updated_at":"2026-05-25T13:38:03.211646Z"}}